• In Denmark
  • List of Countries
  • For 7 days
  • Water Temperature
  • Satellite Maps
  • Weather Map
  • Weather Widgets
  • user-avatar
    Login

    Hourly Weather Yulara

    Today, 16 November, Friday

    Time Temperature Precipitation Wind Pressure Humidity
    00:00 +30°C° 0 mm 5 mps 719 mmHg 30%
    01:00 +30°C° 0 mm 5 mps 719 mmHg 29%
    02:00 +29°C° 0 mm 6 mps 719 mmHg 28%
    03:00 +29°C° 0 mm 5 mps 719 mmHg 28%
    04:00 +29°C° 0 mm 5 mps 719 mmHg 27%
    05:00 +29°C° 0 mm 4 mps 719 mmHg 27%
    06:00 +29°C° 0 mm 4 mps 720 mmHg 26%
    07:00 +29°C° 0.1 mm 4 mps 720 mmHg 27%
    08:00 +29°C° 0.1 mm 5 mps 720 mmHg 27%
    09:00 +27°C° 0 mm 5 mps 721 mmHg 35%
    10:00 +27°C° 0.6 mm 6 mps 721 mmHg 37%
    11:00 +26°C° 0.6 mm 6 mps 721 mmHg 40%
    12:00 +26°C° 0.6 mm 6 mps 721 mmHg 42%
    13:00 +26°C° 0.3 mm 7 mps 721 mmHg 43%
    14:00 +26°C° 0.3 mm 7 mps 720 mmHg 43%
    15:00 +26°C° 0.3 mm 7 mps 720 mmHg 43%
    16:00 +26°C° 0 mm 7 mps 720 mmHg 44%
    17:00 +26°C° 0 mm 6 mps 720 mmHg 44%
    18:00 +26°C° 0 mm 6 mps 720 mmHg 45%
    19:00 +26°C° 0 mm 5 mps 720 mmHg 46%
    20:00 +25°C° 0 mm 4 mps 720 mmHg 48%
    21:00 +25°C° 0 mm 4 mps 720 mmHg 50%
    22:00 +24°C° 0 mm 3 mps 719 mmHg 51%
    23:00 +24°C° 0 mm 3 mps 719 mmHg 52%

    Tomorrow, 17 November, Saturday

    Time Temperature Precipitation Wind Pressure Humidity
    00:00 +24°C° 0 mm 3 mps 719 mmHg 53%
    01:00 +22°C° 0 mm 3 mps 719 mmHg 53%
    02:00 +22°C° 0 mm 3 mps 718 mmHg 53%
    03:00 +22°C° 0 mm 3 mps 718 mmHg 53%
    04:00 +22°C° 0 mm 4 mps 718 mmHg 52%
    05:00 +22°C° 0 mm 4 mps 718 mmHg 50%
    06:00 +22°C° 0 mm 4 mps 718 mmHg 48%
    07:00 +26°C° 0 mm 5 mps 719 mmHg 40%
    08:00 +28°C° 0 mm 6 mps 719 mmHg 32%
    09:00 +32°C° 0 mm 7 mps 719 mmHg 24%
    10:00 +33°C° 0 mm 7 mps 719 mmHg 21%
    11:00 +35°C° 0 mm 7 mps 719 mmHg 19%
    12:00 +36°C° 0 mm 6 mps 718 mmHg 16%
    13:00 +36°C° 0 mm 5 mps 718 mmHg 16%
    14:00 +36°C° 0 mm 4 mps 717 mmHg 16%
    15:00 +36°C° 0 mm 3 mps 717 mmHg 16%
    16:00 +36°C° 0 mm 2 mps 717 mmHg 17%
    17:00 +36°C° 0 mm 2 mps 717 mmHg 17%
    18:00 +35°C° 0 mm 2 mps 717 mmHg 18%
    19:00 +34°C° 0 mm 3 mps 717 mmHg 21%
    20:00 +33°C° 0 mm 4 mps 717 mmHg 25%
    21:00 +32°C° 0 mm 5 mps 717 mmHg 28%
    22:00 +30°C° 0 mm 4 mps 717 mmHg 31%
    23:00 +29°C° 0 mm 3 mps 717 mmHg 34%

    Day after tomorrow, 18 November, Sunday

    Time Temperature Precipitation Wind Pressure Humidity
    00:00 +28°C° 0 mm 2 mps 716 mmHg 37%
    01:00 +28°C° 0 mm 2 mps 716 mmHg 38%
    02:00 +27°C° 0 mm 1 mps 716 mmHg 39%
    03:00 +26°C° 0 mm 1 mps 715 mmHg 41%
    04:00 +26°C° 0 mm 2 mps 716 mmHg 39%
    05:00 +27°C° 0 mm 2 mps 716 mmHg 37%
    06:00 +27°C° 0 mm 3 mps 716 mmHg 35%
    07:00 +29°C° 0 mm 4 mps 716 mmHg 28%
    08:00 +32°C° 0 mm 5 mps 717 mmHg 21%
    09:00 +35°C° 0 mm 7 mps 717 mmHg 14%
    10:00 +36°C° 0 mm 6 mps 717 mmHg 14%
    11:00 +38°C° 0 mm 6 mps 717 mmHg 14%
    12:00 +39°C° 0 mm 5 mps 716 mmHg 14%
    13:00 +39°C° 0 mm 5 mps 716 mmHg 14%
    14:00 +40°C° 0 mm 4 mps 715 mmHg 14%
    15:00 +40°C° 0 mm 4 mps 714 mmHg 14%
    16:00 +40°C° 0 mm 4 mps 714 mmHg 14%
    17:00 +38°C° 0 mm 4 mps 714 mmHg 15%
    18:00 +38°C° 0 mm 3 mps 714 mmHg 15%
    19:00 +37°C° 0 mm 3 mps 714 mmHg 16%
    20:00 +36°C° 0 mm 3 mps 714 mmHg 18%
    21:00 +35°C° 0 mm 3 mps 714 mmHg 19%
    22:00 +34°C° 0 mm 3 mps 714 mmHg 20%
    23:00 +34°C° 0 mm 3 mps 714 mmHg 21%

    19 November, Monday

    Time Temperature Precipitation Wind Pressure Humidity
    00:00 +33°C° 0 mm 3 mps 714 mmHg 21%
    01:00 +33°C° 0 mm 3 mps 713 mmHg 22%
    02:00 +31°C° 0 mm 3 mps 713 mmHg 22%
    03:00 +31°C° 0 mm 3 mps 713 mmHg 23%
    04:00 +30°C° 0 mm 3 mps 713 mmHg 27%
    05:00 +30°C° 0 mm 3 mps 713 mmHg 30%
    06:00 +30°C° 0 mm 3 mps 713 mmHg 34%
    07:00 +33°C° 0 mm 5 mps 714 mmHg 31%
    08:00 +35°C° 0 mm 6 mps 714 mmHg 27%
    09:00 +39°C° 0 mm 7 mps 714 mmHg 24%
    10:00 +40°C° 0 mm 7 mps 714 mmHg 22%
    11:00 +41°C° 0 mm 6 mps 714 mmHg 19%
    12:00 +42°C° 0 mm 6 mps 713 mmHg 17%
    13:00 +41°C° 0 mm 6 mps 713 mmHg 18%
    14:00 +41°C° 0 mm 6 mps 712 mmHg 19%
    15:00 +40°C° 0 mm 6 mps 712 mmHg 20%
    16:00 +39°C° 0.6 mm 6 mps 712 mmHg 23%
    17:00 +38°C° 0.6 mm 7 mps 712 mmHg 26%
    18:00 +36°C° 0.6 mm 7 mps 712 mmHg 29%
    19:00 +35°C° 0.1 mm 6 mps 712 mmHg 31%
    20:00 +34°C° 0.1 mm 5 mps 713 mmHg 34%
    21:00 +33°C° 0.1 mm 4 mps 713 mmHg 36%
    22:00 +30°C° 0.6 mm 5 mps 713 mmHg 44%
    23:00 +29°C° 0.6 mm 7 mps 713 mmHg 52%

    20 November, Tuesday

    Time Temperature Precipitation Wind Pressure Humidity
    00:00 +27°C° 0.6 mm 9 mps 714 mmHg 61%
    01:00 +24°C° 0.7 mm 9 mps 713 mmHg 63%
    02:00 +23°C° 0.7 mm 9 mps 713 mmHg 65%
    03:00 +21°C° 0.7 mm 9 mps 713 mmHg 67%
    04:00 +21°C° 0.5 mm 9 mps 713 mmHg 66%
    05:00 +20°C° 0.5 mm 8 mps 714 mmHg 65%
    06:00 +20°C° 0.5 mm 8 mps 714 mmHg 64%
    07:00 +21°C° 0.6 mm 8 mps 715 mmHg 59%
    08:00 +23°C° 0.6 mm 7 mps 715 mmHg 54%
    09:00 +24°C° 0.6 mm 7 mps 715 mmHg 50%
    10:00 +26°C° 1.3 mm 6 mps 715 mmHg 49%
    11:00 +26°C° 1.3 mm 5 mps 714 mmHg 48%
    12:00 +27°C° 1.3 mm 4 mps 714 mmHg 48%
    13:00 +28°C° 0.3 mm 4 mps 713 mmHg 46%
    14:00 +29°C° 0.3 mm 4 mps 713 mmHg 44%
    15:00 +30°C° 0.3 mm 4 mps 713 mmHg 42%
    16:00 +30°C° 0 mm 6 mps 712 mmHg 40%
    17:00 +30°C° 0 mm 7 mps 712 mmHg 38%
    18:00 +29°C° 0 mm 9 mps 712 mmHg 36%
    19:00 +28°C° 0 mm 8 mps 713 mmHg 36%
    20:00 +27°C° 0 mm 7 mps 714 mmHg 37%
    21:00 +26°C° 0 mm 7 mps 714 mmHg 37%
    22:00 +26°C° 0 mm 7 mps 714 mmHg 37%
    23:00 +24°C° 0 mm 7 mps 714 mmHg 36%

    21 November, Wednesday

    Time Temperature Precipitation Wind Pressure Humidity
    00:00 +23°C° 0 mm 7 mps 714 mmHg 36%
    01:00 +22°C° 0 mm 8 mps 715 mmHg 37%
    02:00 +21°C° 0 mm 8 mps 715 mmHg 37%
    03:00 +19°C° 0 mm 9 mps 715 mmHg 38%
    04:00 +18°C° 0 mm 9 mps 715 mmHg 44%
    05:00 +16°C° 0 mm 9 mps 716 mmHg 50%
    06:00 +15°C° 0 mm 9 mps 716 mmHg 56%
    07:00 +16°C° 0 mm 8 mps 717 mmHg 51%
    08:00 +18°C° 0 mm 7 mps 717 mmHg 46%
    09:00 +20°C° 0 mm 7 mps 718 mmHg 42%
    10:00 +21°C° 0 mm 6 mps 718 mmHg 38%
    11:00 +23°C° 0 mm 5 mps 717 mmHg 34%
    12:00 +25°C° 0 mm 4 mps 717 mmHg 29%
    13:00 +26°C° 0 mm 4 mps 716 mmHg 26%
    14:00 +27°C° 0 mm 4 mps 716 mmHg 23%
    15:00 +28°C° 0 mm 4 mps 716 mmHg 19%
    16:00 +28°C° 0 mm 5 mps 716 mmHg 18%
    17:00 +27°C° 0 mm 5 mps 716 mmHg 17%
    18:00 +27°C° 0 mm 6 mps 716 mmHg 16%
    19:00 +26°C° 0 mm 6 mps 716 mmHg 17%
    20:00 +24°C° 0 mm 6 mps 717 mmHg 19%
    21:00 +23°C° 0 mm 6 mps 717 mmHg 21%
    22:00 +22°C° 0 mm 6 mps 717 mmHg 22%
    23:00 +21°C° 0 mm 7 mps 717 mmHg 22%
    Show more